Theta_e
316 325 326 329 324 326 326 330 327 335 351 345 344 342 343 344 347 346 348 351 352 344 341 342 339 334 327 328 338 341 338 330 322 324 324 324 325 326 328 328 327 328 328 328 328 328 328 332 337
318 326 327 327 327 327 327 325 326 337 346 341 340 341 341 343 341 339 344 354 351 342 340 340 337 331 327 332 337 340 340 334 324 322 325 325 324 324 325 325 326 328 328 330 329 328 328 328 327
324 324 326 325 328 329 329 324 324 326 348 351 347 345 342 344 336 345 354 356 346 342 341 340 337 333 328 335 337 341 341 337 328 322 324 325 325 324 324 325 326 330 329 331 331 329 328 328 326
323 324 326 326 330 331 325 322 323 326 342 345 350 352 349 355 347 355 358 355 347 344 341 339 338 336 331 330 339 341 341 339 333 326 323 325 325 325 325 325 327 332 332 332 333 332 328 328 327
322 323 322 327 330 328 327 325 325 324 335 338 343 346 350 355 357 359 358 348 353 349 345 340 338 337 336 332 331 339 340 340 336 331 326 325 326 326 326 326 328 330 332 334 332 332 328 326 326
321 322 317 326 330 328 325 324 324 324 325 329 335 335 338 348 350 354 358 355 337 337 351 347 341 339 338 336 333 330 333 337 339 335 331 329 328 327 327 327 327 327 327 329 330 329 326 325 325
319 317 318 318 323 328 325 325 322 323 324 325 329 326 328 333 329 343 349 353 352 348 345 344 345 343 342 341 337 334 332 330 329 333 336 335 334 333 331 329 328 328 328 328 328 329 325 324 325
321 317 318 318 319 323 323 324 323 323 324 325 325 324 324 325 326 339 350 349 351 350 349 349 351 346 345 349 350 345 342 336 332 330 329 330 334 336 337 337 334 332 331 329 329 330 326 325 327
320 314 315 319 321 323 324 322 323 323 323 324 324 324 324 325 326 330 328 348 340 351 343 352 352 352 353 353 351 345 342 336 342 336 332 330 328 328 332 334 336 337 336 334 331 330 330 328 328
319 315 318 322 321 320 321 323 323 323 322 324 324 324 324 325 325 324 324 324 324 326 333 346 335 343 352 355 352 347 347 349 344 342 341 341 335 332 328 328 332 333 335 336 335 332 331 330 329
321 319 320 322 322 321 321 321 321 321 320 323 323 322 323 323 323 324 324 323 325 325 324 325 327 335 341 349 345 354 350 353 350 350 346 342 340 340 335 332 339 342 339 333 332 334 332 330 330
319 321 321 321 321 321 319 321 321 321 321 322 322 321 321 321 323 323 322 322 323 324 326 325 325 324 334 339 339 339 339 348 351 348 351 349 347 344 339 340 341 343 343 342 342 337 331 331 329
321 322 322 321 321 320 321 320 320 320 321 322 321 321 320 321 322 322 322 321 322 322 323 325 325 325 323 324 335 334 333 340 344 348 340 351 350 348 346 340 342 344 343 343 344 341 337 333 328
321 321 321 321 321 321 320 320 321 321 320 321 320 320 320 320 321 322 324 325 324 324 323 323 323 323 320 317 317 319 322 333 337 342 338 345 347 348 347 342 342 343 345 344 346 344 340 339 335
322 320 318 319 321 321 322 321 320 321 321 321 320 321 321 321 321 321 323 324 324 324 324 326 320 315 317 317 315 314 314 316 338 331 332 342 346 347 348 343 339 341 344 344 345 344 344 343 339
320 319 318 318 320 321 320 318 319 322 322 321 321 321 321 321 320 321 323 323 324 325 325 324 316 318 320 320 321 321 319 316 314 322 337 334 338 341 345 342 339 336 341 339 343 343 342 343 343
321 319 320 321 321 319 318 318 320 322 322 322 322 321 322 321 320 321 323 324 324 325 324 319 317 319 319 319 320 321 324 324 320 315 322 334 334 334 344 343 340 338 344 337 335 340 340 341 342
319 319 319 320 320 320 319 318 320 323 322 322 321 321 321 321 320 323 325 325 324 324 324 320 318 318 317 316 316 317 319 321 322 324 322 318 322 328 334 341 344 345 344 340 336 342 341 341 341
320 319 320 321 321 321 320 320 319 321 321 320 321 321 321 321 323 325 325 324 324 324 323 322 320 316 317 317 316 316 316 315 316 326 327 328 326 330 332 340 338 343 343 340 339 339 339 339 342
320 320 320 321 321 320 318 319 318 318 319 320 320 321 320 324 325 325 325 324 324 324 323 323 322 320 317 316 316 315 315 315 315 315 320 326 329 332 338 338 340 338 333 335 335 336 333 332 339
320 320 319 318 318 318 317 317 317 319 320 320 320 319 318 323 324 325 325 324 324 324 323 323 322 321 319 318 317 317 314 314 314 315 316 319 319 323 328 326 335 339 337 336 332 332 331 334 334
320 320 319 319 317 316 319 318 318 318 319 319 319 318 319 319 319 323 324 324 324 324 323 322 321 321 321 320 319 316 315 314 315 315 314 313 315 314 314 316 326 333 335 337 335 328 324 330 334
319 320 319 319 317 317 319 318 320 318 318 320 320 321 319 320 320 321 322 324 325 323 322 321 321 322 321 321 320 317 315 315 314 314 314 313 313 313 314 313 324 332 334 332 334 338 335 336 333
320 318 319 318 316 318 319 319 317 318 320 320 320 319 321 321 320 319 320 324 324 323 321 322 321 321 321 320 319 318 317 316 314 314 312 312 312 312 312 314 318 329 330 332 331 331 332 333 334
318 315 317 319 318 320 319 318 316 319 319 318 317 318 320 320 320 319 318 318 320 321 321 320 320 319 321 321 319 317 316 316 315 313 314 315 312 311 312 314 315 317 327 329 327 326 329 330 333
318 317 316 321 319 320 319 318 316 318 318 318 318 319 320 320 319 319 318 316 316 317 318 317 317 318 316 319 318 317 316 315 314 314 315 317 315 312 312 315 317 322 327 330 327 328 330 331 333
318 317 316 317 320 319 318 318 318 319 319 318 318 318 319 319 319 318 316 315 315 314 315 316 317 319 320 317 316 315 314 314 314 314 314 314 314 313 313 315 317 318 319 324 329 324 323 328 332
318 317 316 319 321 320 321 321 320 318 317 319 317 318 317 317 319 318 316 315 314 314 314 314 316 317 316 316 315 314 314 313 314 314 314 313 313 312 313 315 317 318 317 318 329 330 326 323 326
316 315 316 318 321 318 321 318 317 317 314 314 316 318 317 316 316 315 314 314 315 315 315 315 315 315 315 314 313 313 313 314 313 313 313 312 312 311 313 317 318 318 317 316 330 333 327 328 324
317 318 318 321 320 320 321 319 315 315 314 315 315 317 316 315 317 315 314 314 313 313 313 314 313 313 313 313 313 313 313 312 312 312 312 311 309 309 309 311 313 315 317 318 326 335 329 325 330
Wind_Speed
11 6 12 11 4 4 5 5 7 17 9 16 24 18 17 13 10 4 10 9 16 15 16 16 14 11 13 14 14 13 13 14 14 16 16 16 15 14 12 11 10 9 9 9 8 8 8 9 9
7 9 5 5 3 4 6 10 13 15 32 45 39 23 11 6 7 6 14 14 19 16 15 16 15 13 14 17 16 14 12 12 12 13 13 14 14 12 10 9 8 7 7 6 6 5 5 5 7
9 7 5 3 1 2 5 8 10 24 33 23 12 16 17 13 15 14 21 21 24 17 13 14 14 14 14 16 16 14 12 11 11 11 11 11 11 11 10 8 6 5 6 5 4 3 2 2 4
9 4 2 3 5 7 4 8 15 20 32 31 25 7 11 15 27 17 25 18 21 16 12 11 11 13 13 14 15 14 12 10 10 10 10 10 9 9 8 7 6 5 5 4 4 4 3 2 1
9 4 1 1 5 9 8 14 16 8 21 23 27 12 18 15 13 10 17 15 20 16 12 9 8 10 12 12 12 11 11 9 9 8 9 8 9 8 8 8 8 6 6 5 5 5 5 4 3
4 4 3 2 9 13 1 12 11 15 21 23 19 18 20 17 12 14 20 22 21 12 5 6 7 7 9 11 10 8 8 8 7 8 8 8 8 9 9 9 9 9 9 8 8 7 7 7 5
4 2 4 6 8 4 4 1 8 11 19 21 25 6 10 12 12 3 7 5 18 22 7 11 11 10 8 9 8 5 4 5 6 7 8 9 9 10 11 11 12 12 12 12 11 10 10 9 7
11 3 6 6 2 2 1 3 6 11 8 8 13 4 2 7 10 15 10 7 10 11 10 12 14 16 14 11 10 8 5 2 4 6 8 10 11 12 13 13 14 14 15 15 15 13 12 11 10
7 3 4 7 7 4 8 3 5 5 4 7 12 16 8 7 5 11 22 18 24 10 17 10 11 7 7 7 6 9 9 6 6 6 8 9 11 13 15 15 16 17 17 18 18 17 16 14 13
5 3 6 3 6 5 12 5 8 4 6 5 14 14 12 6 6 11 21 20 27 30 28 18 15 14 1 3 4 10 9 7 5 6 7 11 12 13 14 15 16 19 20 20 21 20 19 19 16
2 3 5 6 11 13 10 12 9 9 4 7 17 15 13 5 1 5 9 15 13 15 12 13 9 9 12 5 4 5 8 9 9 9 8 7 7 12 15 15 14 15 16 19 21 23 24 22 19
4 5 5 5 11 7 8 12 8 8 2 11 10 7 5 4 13 5 7 8 7 3 4 0 4 6 5 5 5 4 3 6 11 12 13 11 9 12 11 13 13 15 16 14 13 18 26 24 23
4 1 5 0 4 4 7 14 7 15 9 6 7 3 1 3 6 7 11 12 12 11 14 10 12 13 12 11 15 16 14 5 6 12 15 17 13 12 13 14 16 20 19 19 18 15 12 17 21
4 7 6 6 8 6 4 6 11 16 15 9 11 7 3 7 10 10 17 13 10 10 13 17 19 19 19 18 18 18 19 18 19 11 14 17 21 19 16 15 20 22 21 20 18 18 15 14 14
5 4 8 9 12 5 3 2 8 20 17 18 12 8 6 10 13 14 14 11 9 8 11 8 14 11 12 13 15 17 20 20 20 26 19 15 21 27 23 19 19 21 27 25 19 19 20 25 18
5 4 3 12 13 9 11 8 13 20 14 15 13 15 14 11 15 11 15 13 9 8 8 8 9 11 12 13 12 11 11 14 18 23 21 23 16 26 32 27 25 26 23 26 33 28 24 18 27
3 4 5 5 11 6 6 6 18 17 9 10 19 24 22 19 21 19 18 14 12 7 2 8 6 7 9 10 12 12 12 13 14 19 26 23 22 20 31 33 30 31 28 25 24 26 31 27 19
5 6 8 7 9 3 8 8 6 5 10 14 18 19 23 26 27 22 18 13 9 5 5 7 7 9 9 10 11 12 10 10 13 17 18 24 28 23 24 32 34 32 30 26 26 26 28 28 30
6 7 8 8 11 5 6 7 9 16 21 23 23 24 25 9 21 23 16 11 5 4 9 12 17 12 14 15 14 15 16 16 16 13 13 18 22 22 22 26 29 33 24 25 25 29 30 28 29
6 8 9 7 7 8 9 14 12 13 18 27 31 32 12 29 25 22 18 14 11 9 10 16 15 11 12 13 13 15 16 16 17 17 19 17 18 19 18 12 21 29 27 34 25 25 29 29 30
6 5 8 8 9 8 9 10 9 21 28 30 11 17 14 22 23 22 21 18 13 13 14 14 12 10 9 13 17 19 17 17 18 18 19 20 22 22 25 26 19 17 25 30 27 31 30 29 32
5 10 11 11 8 4 3 11 10 11 13 12 11 14 12 13 15 22 21 18 18 16 13 12 12 9 10 12 17 20 23 24 22 22 22 23 24 24 23 25 25 27 24 26 32 33 30 29 36
6 3 6 9 8 7 7 3 12 9 9 20 28 26 19 31 2 8 19 21 18 16 14 13 8 1 9 14 20 23 28 28 26 24 26 24 24 25 24 22 22 22 25 27 30 28 27 32 34
6 8 7 5 4 3 7 4 6 7 11 16 24 29 36 38 31 32 27 16 13 16 15 14 11 7 6 18 23 24 24 27 29 30 29 27 27 26 25 23 23 19 21 22 33 31 44 33 33
8 8 5 5 4 6 8 7 6 8 13 16 18 22 26 25 29 31 32 27 14 1 15 13 15 9 5 21 22 20 21 25 31 33 32 30 29 31 31 30 30 27 21 24 26 29 33 34 31
4 1 4 6 3 8 4 5 5 7 21 20 21 26 24 26 21 22 22 25 19 14 11 12 11 14 21 19 23 20 23 30 30 29 28 35 36 36 33 31 27 23 20 17 21 30 28 30 33
5 3 8 5 4 4 4 8 5 15 12 12 13 18 14 20 22 19 23 26 23 17 18 20 21 14 10 17 19 21 24 25 28 29 32 36 38 37 36 34 31 28 26 23 21 28 35 33 30
5 6 6 4 4 10 2 6 8 11 18 10 14 15 17 18 19 22 22 20 20 19 17 16 16 18 19 17 16 19 23 24 22 23 29 34 41 40 34 31 31 30 26 24 24 25 28 28 40
12 8 5 0 3 1 4 5 15 15 8 7 7 10 16 13 11 16 15 20 22 19 20 22 22 20 19 19 19 17 17 20 25 31 36 41 44 41 36 31 31 31 29 22 22 22 27 41 44
8 6 5 1 9 7 8 10 13 13 15 18 20 14 16 22 14 20 23 22 26 24 21 22 14 14 12 12 15 19 23 26 31 36 41 45 50 44 41 39 38 35 30 24 25 23 28 32 28
Wind_Direction
315 358 349 326 25 72 283 316 358 42 61 77 87 73 86 104 138 197 156 204 152 153 140 130 124 121 120 127 131 129 119 121 135 142 144 145 145 145 144 137 131 128 126 125 121 116 111 107 102
340 22 1 295 70 5 306 2 3 70 115 107 96 83 45 80 140 204 223 164 177 155 142 133 126 119 119 126 132 133 124 117 130 144 151 152 152 151 155 151 146 144 145 141 135 126 114 102 93
352 349 3 153 42 324 308 12 344 343 140 113 103 115 126 151 148 144 173 165 160 142 132 126 124 116 116 125 133 138 131 122 129 144 155 160 162 161 166 166 162 161 168 167 166 163 154 98 79
359 10 273 63 325 305 0 11 353 350 84 76 124 133 143 147 175 188 151 139 117 116 119 119 116 113 113 121 131 140 138 133 135 147 159 165 175 177 182 184 187 185 189 203 211 218 225 253 21
358 277 312 160 347 332 343 20 359 9 76 86 89 92 87 126 126 161 131 123 123 101 105 106 108 111 113 115 126 143 147 147 147 154 162 173 183 194 204 207 209 217 222 234 247 250 245 250 279
314 298 14 163 187 236 101 6 347 28 40 82 91 80 88 101 105 90 130 158 86 42 88 107 113 109 110 113 117 137 149 161 167 170 177 183 195 206 215 224 232 238 245 247 255 259 255 256 265
196 106 247 294 249 172 124 23 30 44 38 22 97 70 59 87 56 78 139 131 98 93 103 104 107 89 99 86 89 103 128 164 185 195 199 204 209 215 224 231 238 243 249 256 258 260 257 258 265
241 91 291 269 245 150 149 82 61 49 73 58 71 82 360 13 19 103 143 124 108 110 113 99 89 92 112 95 70 56 28 293 224 219 217 221 226 231 234 236 239 244 250 253 257 258 257 259 262
251 40 294 305 55 156 176 133 64 9 358 74 90 111 113 42 16 88 66 107 82 142 66 113 80 81 102 82 54 24 5 345 297 272 255 242 237 238 242 245 249 250 250 251 254 256 257 258 258
158 127 261 47 41 34 21 17 145 129 356 122 122 125 133 116 74 48 66 70 81 90 91 104 83 70 199 145 15 9 357 354 347 330 309 281 265 256 249 250 255 258 257 256 253 252 253 254 254
252 162 359 65 54 21 1 353 328 90 17 107 141 127 124 111 118 94 64 43 70 86 89 90 121 89 112 127 344 343 319 296 300 296 306 293 285 270 264 255 246 259 262 258 260 258 254 253 254
357 83 47 44 70 22 328 332 345 20 8 120 119 121 115 61 148 196 279 300 304 21 60 130 130 210 200 192 201 212 325 298 295 299 283 258 283 302 280 258 257 266 276 270 281 277 260 257 255
332 2 125 311 16 306 340 329 328 308 310 199 155 142 152 222 192 166 175 206 241 269 274 297 294 289 281 262 237 240 251 245 284 280 296 264 257 280 291 272 249 257 265 268 270 290 287 270 256
338 330 316 161 231 174 198 284 316 298 253 242 190 196 244 283 300 152 161 156 170 207 242 258 280 303 297 285 283 265 255 256 252 273 291 280 276 269 262 265 249 248 253 258 259 263 277 280 253
257 245 273 248 204 174 126 257 274 277 258 222 191 180 225 268 277 284 189 179 188 205 254 300 336 343 327 316 305 288 276 265 254 252 263 287 268 273 258 260 256 257 249 255 259 259 265 262 254
265 284 243 226 204 191 145 240 264 279 333 215 188 218 231 242 260 271 197 188 210 218 242 287 315 343 342 337 337 321 300 277 265 256 254 256 294 269 262 259 264 275 266 254 245 253 261 266 251
280 314 349 11 198 157 154 221 234 251 271 239 237 234 226 229 232 227 207 188 203 224 323 345 360 349 341 338 333 326 317 307 292 266 247 243 261 290 260 265 264 267 260 265 251 243 247 253 258
346 347 335 321 315 258 246 259 260 294 306 282 285 286 233 226 229 182 167 165 187 218 310 328 325 318 315 326 326 325 338 319 309 290 275 261 259 280 278 267 260 261 254 259 261 245 237 245 248
346 331 315 295 283 354 335 332 323 327 314 293 283 272 261 235 155 154 155 163 185 280 298 306 321 304 303 310 318 323 331 337 334 327 309 281 270 283 297 272 267 257 265 261 259 265 258 254 247
325 299 288 285 341 13 337 312 303 294 283 274 266 264 149 148 157 167 178 194 219 246 266 288 288 286 299 310 318 322 323 323 322 320 307 302 290 280 306 313 270 267 262 258 258 257 264 260 254
312 338 351 333 335 353 338 312 322 302 298 295 221 149 141 149 167 175 179 187 210 233 243 253 258 261 280 305 317 315 309 311 320 312 308 299 306 302 299 311 300 294 266 269 255 256 247 258 256
2 351 350 338 351 293 26 296 302 283 290 300 216 171 194 218 226 190 191 208 223 213 218 230 255 257 279 293 311 327 327 321 319 320 315 310 303 307 310 307 308 300 285 263 260 253 250 254 258
289 318 306 294 293 315 289 249 292 301 356 18 21 20 29 35 237 196 216 224 205 201 202 206 168 48 316 314 316 321 323 315 310 312 311 307 300 299 300 312 310 297 290 278 262 258 251 254 254
330 354 324 339 306 323 280 20 304 37 54 33 25 29 33 28 29 41 41 99 148 170 139 153 195 177 316 303 305 313 313 315 317 316 312 307 302 297 302 302 305 314 284 269 274 257 259 243 249
14 13 336 346 349 252 333 2 251 64 49 44 21 16 24 19 17 19 20 26 23 7 239 245 238 244 293 283 293 297 303 310 313 316 313 310 305 302 300 305 305 306 299 281 281 250 232 242 244
351 29 164 267 274 282 340 263 266 96 34 19 29 19 17 9 5 4 2 3 346 340 311 328 310 265 299 244 272 280 293 302 307 312 305 302 303 304 304 307 306 298 290 300 273 236 247 242 246
313 310 244 272 297 303 226 272 349 77 22 37 26 4 20 8 359 7 2 352 349 335 326 302 302 296 262 280 283 290 295 301 304 307 304 301 302 303 304 304 305 302 290 276 279 246 255 256 246
263 296 347 309 308 278 326 325 273 9 9 19 13 37 21 4 356 340 336 331 330 322 332 298 287 301 285 287 281 289 296 300 299 301 298 298 299 304 304 308 303 302 295 275 277 264 241 258 251
325 321 328 253 10 270 325 294 312 9 34 10 11 28 5 357 348 327 333 338 332 336 334 319 302 288 284 281 294 291 283 283 289 293 295 295 298 300 295 295 295 299 299 276 266 270 254 247 249
348 350 358 127 287 251 265 273 6 342 19 355 7 31 15 2 324 330 339 337 331 334 334 329 319 304 306 301 291 284 284 287 287 289 291 292 297 295 292 288 286 290 294 276 264 270 256 237 234